[[{"header":{"parameterUnit":"m.s-1","parameterCategory":1,"la1":30.2991,"la2":30.254,"lo1":-89.0895,"lo2":-89.0444,"dy":0.0017,"dx":0.0017,"nx":28,"ny":28,"refTime":"2025-08-22T09:00:00:Z","depth":0,"parameterNumber":2,"parameterNumberName":"U-component_of_WINDS"},"data":[0,0,0,0,0,0,0,0,0,0,0,0,0,0,0,0,0,0,0,0,0,0,0,0,0,0,0,0,0,0,0,0,0,0,0,0,0,0,0,0,0,0,0,0,0,0,0,0,0,0,0,0,0,0,0,0,0,0,1.4558,1.4558,0,1.4578,1.4578,1.4578,1.4574,1.4574,1.4573,1.4573,1.4595,1.4595,1.4596,0,0,0,0,0,0,0,0,0,0,0,0,0,1.4518,1.4519,1.4558,1.4558,1.4558,1.4578,1.4578,1.4578,1.4574,1.4574,1.4573,1.4573,1.4594,1.4595,1.4596,0,0,0,0,0,0,0,0,0,0,0,0,0,1.4537,1.4519,1.4558,1.4559,1.4559,1.4578,1.4578,1.4578,1.4574,1.4574,1.4573,1.4572,1.4594,1.4595,1.4597,1.4616,0,0,1.4601,1.4601,0,0,0,0,0,0,0,0,1.4536,1.4538,1.4558,1.4559,1.4559,1.4573,1.4572,1.4591,1.4574,1.4568,1.4573,1.4572,1.4588,1.459,1.4595,1.4617,1.4618,1.4601,1.4602,1.4602,1.4603,0,0,0,0,0,0,0,1.4534,1.4537,1.4566,1.4558,1.4559,1.4559,1.4561,1.4576,1.4581,1.4569,1.4569,1.4571,1.4588,1.4593,1.4595,1.4618,1.4601,1.4602,1.4603,1.4603,1.4659,1.466,0,0,0,0,0,0,1.4533,1.4536,1.4565,1.4566,1.4546,1.456,1.4562,1.4569,1.4581,1.4582,1.4571,1.4571,1.4591,1.4593,1.4596,1.462,1.4602,1.4604,1.4604,1.4658,1.4659,1.466,0,0,0,0,0,0,1.4532,1.4535,1.4564,1.4551,1.4555,1.4561,1.4569,1.457,1.4575,1.4583,1.4584,1.4576,1.4591,1.4594,1.4611,1.462,1.4604,1.4606,1.4658,1.4659,1.4659,1.4668,0,0,0,0,0,0,1.4531,1.4535,1.4542,1.4551,1.4556,1.4579,1.4569,1.457,1.4577,1.4576,1.4587,1.4588,1.4591,1.4609,1.4613,1.4622,1.4607,1.4657,1.4658,1.4659,1.4666,1.4669,1.4671,0,0,0,0,0,1.4529,1.4544,1.4542,1.4546,1.4564,1.4579,1.4582,1.4584,1.4578,1.4585,1.459,1.4588,1.4619,1.4611,1.4615,1.4625,1.4656,1.4658,1.4659,1.4666,1.4668,1.4671,0,0,0,0,0,0,1.4535,1.4545,1.4543,1.4561,1.4569,1.4578,1.4588,1.4586,1.4597,1.4596,1.4598,1.4601,1.4618,1.4623,1.4614,1.4645,1.4637,1.4639,1.4641,1.4643,1.4645,1.4643,1.4608,0,0,0,0,0,1.4539,1.4549,1.4557,1.4572,1.4576,1.4581,1.4588,1.4589,1.4598,1.4601,1.4608,1.4617,1.4629,1.4636,1.4648,1.4668,1.467,1.4676,1.4679,1.468,1.4682,1.4693,1.4696,1.4665,1.4664,1.4664,0,0,1.4546,1.4552,1.4559,1.4574,1.458,1.4592,1.4584,1.4597,1.4606,1.4603,1.462,1.4625,1.4635,1.4654,1.4663,1.4659,1.4691,1.4682,1.4683,1.4684,1.4695,1.4698,1.4701,1.4665,1.4665,1.4665,0,0,1.4564,1.457,1.4583,1.459,1.46,1.4603,1.4607,1.4616,1.4619,1.4636,1.4635,1.4646,1.4666,1.4673,1.468,1.4703,1.4701,1.4706,1.4717,1.4728,1.473,1.4732,1.474,1.4743,1.4708,1.4708,1.4708,0,1.4572,1.4588,1.459,1.4603,1.461,1.4608,1.4622,1.4629,1.4642,1.4647,1.4643,1.4668,1.4675,1.4696,1.4702,1.4707,1.4711,1.4705,1.473,1.4732,1.4734,1.4742,1.4745,1.4709,1.4709,1.4709,1.4709,0,1.4597,1.4609,1.4619,1.4631,1.4639,1.4653,1.4657,1.4665,1.4666,1.467,1.4687,1.4696,1.4709,1.4714,1.4715,1.4735,1.4732,1.4729,1.4721,1.4738,1.4745,1.4748,1.471,1.471,1.4709,1.4709,0,0,1.4619,1.4633,1.4637,1.4642,1.4654,1.4663,1.4677,1.4689,1.4696,1.4706,1.4718,1.4735,1.4732,1.474,1.4742,1.4751,1.4769,1.4747,1.4747,1.475,1.4792,1.4794,1.4797,1.4768,1.4769,1.4769,1.4791,0,1.4639,1.4662,1.4664,1.4685,1.4696,1.4696,1.4708,1.4716,1.4721,1.4732,1.4737,1.4749,1.4744,1.4749,1.4759,1.4765,1.4777,1.4763,1.4779,1.478,1.4776,1.4801,1.4803,1.4823,1.4794,1.4794,1.4795,0,1.4664,1.4674,1.4696,1.4706,1.4711,1.4721,1.4733,1.4744,1.4754,1.4757,1.4765,1.4766,1.4781,1.4773,1.4794,1.4784,1.4791,1.4795,1.4796,1.4797,1.4788,1.4802,1.4829,1.4832,1.4799,1.4799,1.4798,0,1.4677,1.4696,1.4712,1.4717,1.473,1.4737,1.4743,1.4752,1.476,1.4771,1.4776,1.4789,1.4795,1.4806,1.481,1.4804,1.4831,1.4823,1.4833,1.4833,1.4838,1.4838,1.4866,1.4844,1.4844,1.4844,1.4844,0,1.4698,1.4712,1.4718,1.4728,1.4743,1.4747,1.4762,1.4767,1.4776,1.4787,1.4788,1.4798,1.4804,1.4816,1.4819,1.4836,1.4839,1.4842,1.4843,1.4842,1.4841,1.4846,1.4844,1.4845,1.4844,1.4844,1.4844,0,1.4715,1.472,1.4737,1.4748,1.4751,1.4762,1.4771,1.4781,1.4785,1.48,1.4803,1.4811,1.4825,1.483,1.4847,1.485,1.4869,1.4869,1.4865,1.4865,1.4875,1.4874,1.4907,1.4912,1.4887,1.4887,1.4887,0,1.4728,1.4738,1.475,1.4757,1.4763,1.4775,1.4782,1.4787,1.4795,1.4808,1.4816,1.483,1.4841,1.4863,1.4871,1.4884,1.4884,1.4895,1.4886,1.4884,1.4884,1.4883,1.4884,1.4896,1.4896,1.4897,1.4897,0,1.475,1.4752,1.4763,1.4775,1.4784,1.4794,1.4803,1.4809,1.4815,1.4825,1.4839,1.4847,1.4865,1.4879,1.4892,1.4899,1.4899,1.49,1.4903,1.4901,1.4898,1.49,1.4869,1.4899,1.4898,1.4898,1.4898,1.4898,1.4765,1.4774,1.4784,1.4796,1.4804,1.4813,1.4822,1.4829,1.484,1.4854,1.4857,1.4871,1.4882,1.4901,1.4908,1.492,1.4917,1.4922,1.4923,1.4924,1.4924,1.4897,1.4923,1.4923,1.4923,1.4923,1.4923,0,1.4786,1.4793,1.4804,1.4817,1.4827,1.4827,1.4837,1.4846,1.4859,1.4869,1.488,1.4896,1.491,1.4919,1.4932,1.494,1.4941,1.4944,1.4943,1.4945,1.4926,1.4922,1.4943,1.4943,1.4943,1.4943,1.4943,1.4943,1.4799,1.4814,1.4818,1.4837,1.4844,1.4858,1.4864,1.4873,1.4881,1.4899,1.491,1.4916,1.4926,1.494,1.4953,1.4955,1.496,1.4963,1.4966,1.4948,1.4946,1.4944,1.494,1.4965,1.4965,1.4983,1.4983,1.4983]},{"header":{"parameterUnit":"m.s-1","parameterCategory":1,"la1":30.2991,"la2":30.254,"lo1":-89.0895,"lo2":-89.0444,"dy":0.0017,"dx":0.0017,"nx":28,"ny":28,"refTime":"2025-08-22T09:00:00:Z","depth":0,"parameterNumber":3,"parameterNumberName":"V-component_of_WINDS"},"data":[0,0,0,0,0,0,0,0,0,0,0,0,0,0,0,0,0,0,0,0,0,0,0,0,0,0,0,0,0,0,0,0,0,0,0,0,0,0,0,0,0,0,0,0,0,0,0,0,0,0,0,0,0,0,0,0,0,0,1.8028,1.8029,0,1.8092,1.8093,1.8093,1.8129,1.8129,1.8129,1.8129,1.8191,1.8193,1.8194,0,0,0,0,0,0,0,0,0,0,0,0,0,1.7932,1.7934,1.8028,1.8029,1.803,1.8092,1.8093,1.8094,1.8129,1.8129,1.8129,1.8129,1.8191,1.8193,1.8195,0,0,0,0,0,0,0,0,0,0,0,0,0,1.7983,1.7934,1.8028,1.8055,1.8058,1.8092,1.8093,1.8094,1.8129,1.8129,1.8129,1.8129,1.819,1.8192,1.8195,1.8206,0,0,1.8202,1.8203,0,0,0,0,0,0,0,0,1.798,1.7986,1.805,1.8053,1.8057,1.8103,1.8082,1.8131,1.8129,1.8102,1.8129,1.8129,1.8161,1.8166,1.8178,1.8209,1.8211,1.8202,1.8204,1.8205,1.8205,0,0,0,0,0,0,0,1.7976,1.7984,1.8053,1.8051,1.8055,1.8062,1.807,1.8091,1.813,1.8104,1.8107,1.8114,1.8163,1.8175,1.8179,1.8212,1.8202,1.8204,1.8206,1.8206,1.8252,1.8252,0,0,0,0,0,0,1.7969,1.798,1.8051,1.8055,1.8018,1.8064,1.8072,1.8088,1.813,1.8136,1.8114,1.8115,1.8171,1.8177,1.8182,1.8196,1.8204,1.8207,1.8208,1.8252,1.8252,1.8252,0,0,0,0,0,0,1.7967,1.7975,1.8049,1.8019,1.8029,1.8065,1.8083,1.8089,1.8101,1.8137,1.8144,1.8119,1.8172,1.8178,1.8199,1.8198,1.8208,1.821,1.8253,1.8252,1.8252,1.8225,0,0,0,0,0,0,1.7964,1.7974,1.798,1.8019,1.803,1.8067,1.8083,1.809,1.8105,1.8108,1.8144,1.815,1.8172,1.8195,1.8201,1.8202,1.8212,1.8253,1.8253,1.8252,1.8226,1.8223,1.8221,0,0,0,0,0,1.796,1.797,1.798,1.7989,1.8039,1.8067,1.8073,1.8099,1.8105,1.811,1.8133,1.8149,1.8197,1.8197,1.8204,1.8205,1.8253,1.8253,1.8252,1.8227,1.8224,1.8221,0,0,0,0,0,0,1.793,1.7975,1.7987,1.801,1.8034,1.8072,1.808,1.8096,1.8118,1.812,1.815,1.8158,1.8175,1.8192,1.8191,1.8217,1.8227,1.8228,1.8205,1.8202,1.82,1.8196,1.8214,0,0,0,0,0,1.7926,1.7946,1.7984,1.8,1.8012,1.8043,1.8057,1.8075,1.81,1.8111,1.8135,1.8159,1.8179,1.8192,1.8213,1.8228,1.8235,1.8232,1.823,1.8228,1.8228,1.8235,1.8234,1.8251,1.8251,1.8251,0,0,1.7918,1.7945,1.7956,1.7995,1.8016,1.8034,1.8052,1.8072,1.8085,1.8113,1.8134,1.8152,1.818,1.8198,1.8207,1.8213,1.8225,1.8227,1.8226,1.8227,1.8235,1.8233,1.8231,1.825,1.8251,1.8251,0,0,1.7912,1.7936,1.7951,1.7971,1.8002,1.8022,1.8026,1.8061,1.8074,1.8096,1.8117,1.8132,1.8167,1.8186,1.82,1.8197,1.8212,1.8203,1.8192,1.8198,1.8197,1.8196,1.8193,1.8192,1.8203,1.8203,1.8203,0,1.7898,1.7928,1.7956,1.7974,1.7989,1.8015,1.8029,1.8047,1.8083,1.8092,1.8098,1.8141,1.8162,1.8183,1.8182,1.8193,1.8196,1.8199,1.8195,1.8194,1.8194,1.8191,1.8191,1.8202,1.8202,1.8202,1.8202,0,1.7908,1.7928,1.7936,1.797,1.7986,1.8002,1.803,1.8042,1.8058,1.8077,1.8097,1.8122,1.8148,1.8154,1.8169,1.8176,1.8179,1.819,1.82,1.819,1.8189,1.8188,1.82,1.82,1.8201,1.8201,0,0,1.7888,1.7934,1.7937,1.7951,1.7986,1.8001,1.8017,1.8042,1.8051,1.8074,1.8086,1.8114,1.8123,1.8139,1.8156,1.8162,1.8156,1.8172,1.8173,1.8167,1.8162,1.8153,1.8152,1.8166,1.8166,1.8166,1.816,0,1.7886,1.7916,1.794,1.7961,1.7978,1.8002,1.8014,1.8036,1.8054,1.807,1.8089,1.8107,1.8119,1.8128,1.8135,1.8155,1.8155,1.8156,1.8176,1.8176,1.8168,1.8152,1.8143,1.8136,1.8159,1.8159,1.8159,0,1.789,1.7911,1.7933,1.7963,1.7972,1.7983,1.8006,1.8022,1.8046,1.8058,1.8074,1.8091,1.8106,1.8115,1.8135,1.8135,1.8144,1.8155,1.8155,1.8157,1.8167,1.8153,1.8135,1.8133,1.8159,1.8159,1.8159,0,1.787,1.7905,1.7922,1.7934,1.797,1.7977,1.7992,1.8016,1.8028,1.8048,1.8056,1.8077,1.8088,1.8103,1.8125,1.813,1.8142,1.8153,1.8151,1.815,1.8152,1.8152,1.8135,1.8159,1.8159,1.8159,1.816,0,1.7866,1.7879,1.7914,1.7924,1.7937,1.7963,1.7975,1.7992,1.8012,1.8025,1.8046,1.8058,1.8086,1.81,1.8117,1.8129,1.8135,1.8144,1.8148,1.8141,1.814,1.8147,1.8148,1.8159,1.8159,1.8159,1.8159,0,1.7848,1.7872,1.7892,1.7923,1.7931,1.794,1.7966,1.7976,1.7994,1.8009,1.8014,1.8042,1.8059,1.8082,1.8106,1.8117,1.8127,1.8135,1.8119,1.8122,1.8117,1.8117,1.8104,1.8103,1.8129,1.8129,1.8128,0,1.7844,1.7854,1.7885,1.7895,1.791,1.7926,1.7938,1.7963,1.7975,1.8001,1.8007,1.8025,1.8042,1.8067,1.8089,1.8107,1.8114,1.8108,1.8117,1.8109,1.8112,1.8111,1.8111,1.8106,1.8105,1.8105,1.8105,0,1.7833,1.7844,1.7861,1.7882,1.7896,1.7913,1.7932,1.7938,1.7966,1.7978,1.7995,1.8008,1.8032,1.8049,1.807,1.8084,1.8098,1.8102,1.8102,1.8095,1.8085,1.8089,1.8112,1.8102,1.8102,1.8102,1.8103,1.8103,1.7821,1.783,1.7853,1.787,1.7886,1.7902,1.7912,1.793,1.7946,1.7967,1.798,1.7997,1.8017,1.8046,1.8058,1.807,1.8077,1.8077,1.8077,1.8077,1.8074,1.8083,1.8074,1.8075,1.8075,1.8075,1.8075,0,1.781,1.7826,1.7842,1.7866,1.7879,1.7891,1.7911,1.7921,1.7935,1.7953,1.7968,1.7987,1.8003,1.8024,1.8042,1.8047,1.8054,1.805,1.805,1.8052,1.8068,1.8066,1.8044,1.8044,1.8044,1.8044,1.8044,1.8044,1.7806,1.7821,1.7833,1.7855,1.787,1.7886,1.7896,1.7909,1.7924,1.7943,1.7957,1.7971,1.7989,1.8008,1.8022,1.8028,1.8033,1.8027,1.8035,1.8049,1.8052,1.8054,1.8052,1.8028,1.8028,1.8018,1.8018,1.8018]}]]